Location: Carnières
(50.1682°N, 3.3474°E)
Time: 03:49:14
(UTC+00:00)

Cosmos 1455 - Pass Details

Date: 23 May 2024
Orbit: 445 x 460 km, 82.5° (Epoch: 17 June)

Event Time Altitude Azimuth Distance (km) Brightness Sun altitude
Rises 00:25:53 0° 359° (N) 2,461 7.2 -18.6°
Reaches altitude 10° 00:28:12 10° 14° (NNE) 1,585 5.9 -18.5°
Maximum altitude 00:31:07 25° 71° (ENE) 949 3.8 -18.4°
Enters shadow 00:33:01 16° 117° (ESE) 1,257 4.0 -18.3°
